Akron, CO

3:58 AM MDT on August 18, 2017 (GMT -0600)
Akron-Washington County

Weather History for KAKO - March, 2013

Change the Weather History Date:

Thursday, March 21, 2013

  Actual Average Record
Temperature  
Mean Temperature 38 °F 40 °F  
Max Temperature 52 °F 54 °F 77 °F (1945)
Min Temperature 24 °F 27 °F 4 °F (1955)
Degree Days  
Heating Degree Days 27    
Month to date heating degree days 563  
Cooling Degree Days 0    
Month to date cooling degree days 0  
Moisture  
Dew Point 27 °F    
Average Humidity 64    
Maximum Humidity 92    
Minimum Humidity 35    
Precipitation  
Precipitation 0.28 in 0.03 in 0.61 in (1973)
Month to date precipitation 0.59 0.53  
Year to date precipitation 0.71 1.27  
Sea Level Pressure  
Sea Level Pressure 29.69 in    
Wind  
Wind Speed 7 mph (ENE)    
Max Wind Speed 35 mph    
Max Gust Speed 41 mph    
Visibility 8 miles    
Events Rain , Snow    
T = Trace of Precipitation, MM = Missing Value Source: NWS Daily Summary

Daily Weather History Graph

Daily Weather History Graph

Search for Another Location

Airport or City:

Trip Planner

Search our weather history database for the weather conditions in past years. The results will help you decide how hot, cold, wet, or windy it might be!

Date:

Astronomy

Mar. 21, 2013 Rise Set
Actual Time 6:54 AM MDT 7:06 PM MDT
Civil Twilight 6:27 AM MDT 7:33 PM MDT
Nautical Twilight 5:55 AM MDT 8:05 PM MDT
Astronomical Twilight 5:23 AM MDT 8:37 PM MDT
Moon 1:38 PM MDT (3/21) 3:17 AM MDT (3/21)
Length of Visible Light 13h 06m
Length of Day
12h 12m
Waxing Gibbous, 69% of the Moon is Illuminated
Mar 21
Waxing Gibbous
Mar 27
Full
Apr 2
Last Quarter
Apr 10
New
Apr 18
First Quarter

Hourly Weather History & Observations

Time (MDT) Temp. Windchill Dew Point Humidity Pressure Visibility Wind Dir Wind Speed Gust Speed Precip Events Conditions
12:53 AM 34.0 °F - 19.9 °F 56% 29.70 in 10.0 mi Calm Calm - N/A   Scattered Clouds
1:53 AM 33.1 °F 30.0 °F 19.9 °F 59% 29.68 in 10.0 mi ESE 3.5 mph - N/A   Overcast
2:53 AM 30.0 °F 24.1 °F 19.9 °F 66% 29.68 in 10.0 mi Variable 5.8 mph - N/A   Partly Cloudy
3:53 AM 27.0 °F 20.5 °F 19.0 °F 72% 29.68 in 10.0 mi SE 5.8 mph - N/A   Partly Cloudy
4:53 AM 25.0 °F 19.3 °F 18.0 °F 75% 29.66 in 10.0 mi SE 4.6 mph - N/A   Clear
5:53 AM 27.0 °F 19.5 °F 19.9 °F 75% 29.65 in 10.0 mi SSE 6.9 mph - N/A   Clear
6:53 AM 25.0 °F 17.1 °F 18.0 °F 75% 29.64 in 10.0 mi South 6.9 mph - N/A   Clear
7:53 AM 30.0 °F 26.5 °F 21.0 °F 69% 29.63 in 10.0 mi Variable 3.5 mph - N/A   Clear
8:53 AM 34.0 °F 27.2 °F 23.0 °F 64% 29.61 in 10.0 mi SE 8.1 mph - N/A   Clear
9:53 AM 37.9 °F 30.5 °F 25.0 °F 60% 29.58 in 10.0 mi SE 11.5 mph - N/A   Clear
10:53 AM 41.0 °F - 24.1 °F 51% 29.61 in 10.0 mi Calm Calm - N/A   Overcast
11:53 AM 44.1 °F 40.1 °F 25.0 °F 47% 29.61 in 10.0 mi ENE 6.9 mph - N/A   Overcast
12:53 PM 45.0 °F 38.9 °F 25.0 °F 46% 29.59 in 10.0 mi ESE 12.7 mph - N/A   Mostly Cloudy
1:53 PM 46.9 °F - 25.0 °F 42% 29.57 in 10.0 mi SE 17.3 mph - N/A   Overcast
2:53 PM 51.1 °F - 25.0 °F 36% 29.54 in 10.0 mi SE 15.0 mph - N/A   Partly Cloudy
3:45 PM 39.2 °F 27.2 °F 30.2 °F 70% 29.61 in 10.0 mi North 31.1 mph 41.4 mph N/A   Squalls
3:53 PM 37.9 °F 25.9 °F 32.0 °F 79% 29.66 in 10.0 mi North 28.8 mph 36.8 mph N/A   Overcast
4:00 PM 37.4 °F 26.4 °F 33.8 °F 87% 29.61 in 10.0 mi North 23.0 mph 35.7 mph 0.00 in Rain Light Rain
4:53 PM 37.9 °F 27.9 °F 36.0 °F 93% 29.71 in 9.0 mi North 19.6 mph - 0.01 in Rain Light Rain
5:05 PM 37.4 °F 27.5 °F 35.6 °F 93% 29.67 in 3.0 mi North 18.4 mph - 0.04 in Rain Rain
5:38 PM 35.6 °F 27.1 °F 33.8 °F 93% 29.69 in 6.0 mi North 12.7 mph 19.6 mph 0.13 in Rain Rain
5:53 PM 34.0 °F 27.2 °F 32.0 °F 92% 29.76 in 3.0 mi NNW 8.1 mph - 0.16 in Snow Light Snow
6:00 PM 33.8 °F 29.6 °F 32.0 °F 93% 29.70 in 1.8 mi NNW 4.6 mph - 0.02 in Snow Light Snow
6:13 PM 33.8 °F - 32.0 °F 93% 29.70 in 3.0 mi Calm Calm - 0.05 in Snow Light Snow
6:20 PM 33.8 °F - 32.0 °F 93% 29.71 in 2.5 mi Calm Calm - 0.07 in Snow Light Snow
6:28 PM 33.8 °F - 30.2 °F 87% 29.71 in 1.2 mi Calm Calm - 0.09 in Snow Light Snow
6:31 PM 33.8 °F - 30.2 °F 87% 29.71 in 1.5 mi Calm Calm - 0.09 in Snow Light Snow
6:36 PM 33.8 °F - 30.2 °F 87% 29.71 in 3.0 mi Calm Calm - 0.10 in Snow Light Snow
6:53 PM 35.1 °F - 30.9 °F 85% 29.77 in 6.0 mi Calm Calm - 0.11 in Rain Light Rain
7:11 PM 33.8 °F 29.6 °F 30.2 °F 87% 29.70 in 10.0 mi ESE 4.6 mph - 0.00 in   Overcast
7:53 PM 33.1 °F 27.7 °F 32.0 °F 96% 29.78 in 10.0 mi South 5.8 mph - 0.00 in   Partly Cloudy
8:53 PM 32.0 °F 26.4 °F 30.0 °F 92% 29.82 in 10.0 mi SW 5.8 mph - N/A   Partly Cloudy
9:53 PM 32.0 °F 26.4 °F 28.9 °F 88% 29.85 in 10.0 mi North 5.8 mph - N/A   Partly Cloudy
10:53 PM 32.0 °F 26.4 °F 27.0 °F 82% 29.85 in 10.0 mi NW 5.8 mph - N/A   Clear
11:53 PM 28.9 °F 20.4 °F 25.0 °F 85% 29.86 in 10.0 mi NNW 9.2 mph - N/A   Clear